Yuma MCAS, AZ

10:31 AM MST on April 26, 2018 (GMT -0700)
Yuma Marine Corps Air Station

Weather History for KNYL - October, 2014

Change the Weather History Date:

Sunday, October 12, 2014

  Actual Average Record
Temperature  
Mean Temperature 83 °F 79 °F  
Max Temperature 97 °F 91 °F 109 °F (1950)
Min Temperature 69 °F 66 °F 46 °F (1924)
Degree Days  
Heating Degree Days 0 0  
Month to date heating degree days 0 0  
Since 1 July heating degree days 0 0  
Cooling Degree Days 18 14  
Month to date cooling degree days 221 193  
Year to date cooling degree days 4874 4367  
Growing Degree Days 34 (Base 50)    
Moisture  
Dew Point 51 °F    
Average Humidity 36    
Maximum Humidity 58    
Minimum Humidity 14    
Precipitation  
Precipitation 0.00 in 0.00 in 0.35 in (1887)
Month to date precipitation 0.05 0.10  
Year to date precipitation 2.33 2.72  
Sea Level Pressure  
Sea Level Pressure 29.80 in    
Wind  
Wind Speed 3 mph (SSW)    
Max Wind Speed 12 mph    
Max Gust Speed 14 mph    
Visibility 10 miles    
Events      
T = Trace of Precipitation, MM = Missing Value Source: NWS Daily Summary

Daily Weather History Graph

Daily Weather History Graph

Search for Another Location

Airport or City:

Astronomy

Oct. 12, 2014 Rise Set
Actual Time 6:40 AM MST 6:08 PM MST
Civil Twilight 6:15 AM MST 6:33 PM MST
Nautical Twilight 5:46 AM MST 7:02 PM MST
Astronomical Twilight 5:18 AM MST 7:30 PM MST
Moon 9:40 PM MST (10/12) 10:55 AM MST (10/12)
Length of Visible Light 12h 18m
Length of Day
11h 28m
Waning Gibbous, 78% of the Moon is Illuminated
Oct 12
Waning Gibbous
Oct 15
Last Quarter
Oct 23
New
Oct 30
First Quarter
Nov 6
Full

Hourly Weather History & Observations

Time (MST) Temp. Heat Index Dew Point Humidity Pressure Visibility Wind Dir Wind Speed Gust Speed Precip Events Conditions
12:57 AM 77.0 °F - 54.0 °F 45% 29.81 in 10.0 mi South 4.6 mph - N/A   Clear
1:57 AM 75.0 °F - 55.0 °F 50% 29.81 in 10.0 mi South 4.6 mph - N/A   Clear
2:57 AM 73.9 °F - 57.0 °F 55% 29.80 in 10.0 mi Calm Calm - N/A   Clear
3:57 AM 73.9 °F - 55.9 °F 53% 29.79 in 10.0 mi Calm Calm - N/A   Clear
4:57 AM 72.0 °F - 55.0 °F 55% 29.79 in 10.0 mi Calm Calm - N/A   Clear
5:57 AM 72.0 °F - 54.0 °F 53% 29.79 in 10.0 mi Calm Calm - N/A   Clear
6:57 AM 70.0 °F - 54.0 °F 57% 29.81 in 10.0 mi NNE 3.5 mph - N/A   Clear
7:57 AM 75.9 °F - 53.1 °F 45% 29.83 in 10.0 mi NNE 3.5 mph - N/A   Clear
8:57 AM 79.0 °F - 53.1 °F 40% 29.83 in 10.0 mi Calm Calm - N/A   Clear
9:57 AM 84.0 °F - 52.0 °F 33% 29.84 in 10.0 mi SSW 4.6 mph - N/A   Clear
10:57 AM 89.1 °F - 51.1 °F 27% 29.83 in 10.0 mi Variable 3.5 mph - N/A   Clear
11:57 AM 91.9 °F - 48.0 °F 22% 29.81 in 10.0 mi WSW 4.6 mph - N/A   Partly Cloudy
12:57 PM 95.0 °F - 44.1 °F 17% 29.79 in 10.0 mi West 6.9 mph - N/A   Partly Cloudy
1:57 PM 96.1 °F - 45.0 °F 17% 29.76 in 10.0 mi WSW 8.1 mph - N/A   Partly Cloudy
2:57 PM 96.1 °F - 43.0 °F 16% 29.76 in 10.0 mi South 4.6 mph - N/A   Partly Cloudy
3:57 PM 97.0 °F - 42.1 °F 15% 29.75 in 10.0 mi SW 3.5 mph - N/A   Partly Cloudy
4:57 PM 96.1 °F - 39.0 °F 14% 29.75 in 10.0 mi SW 5.8 mph - N/A   Clear
5:57 PM 93.0 °F - 45.0 °F 19% 29.75 in 10.0 mi SSW 6.9 mph - N/A   Clear
6:57 PM 89.1 °F - 44.1 °F 21% 29.76 in 10.0 mi SW 3.5 mph - N/A   Clear
7:57 PM 86.0 °F - 46.0 °F 25% 29.78 in 10.0 mi SW 3.5 mph - N/A   Clear
8:57 PM 81.0 °F - 51.1 °F 35% 29.81 in 10.0 mi South 4.6 mph - N/A   Clear
9:57 PM 78.1 °F - 62.1 °F 58% 29.82 in 10.0 mi South 4.6 mph - N/A   Clear
10:57 PM 80.1 °F 81.1 °F 61.0 °F 52% 29.85 in 10.0 mi Calm Calm - N/A   Clear
11:57 PM 78.1 °F - 62.1 °F 58% 29.85 in 10.0 mi Calm Calm - N/A   Clear